Showing default

ESSAIM-2, 28495

Orbit data source: Space-Track

ESSAIM-2, 28495 is a French payload satellite in SSO that was launched on Sat, 18 Dec 2004 UTC via an ARIANE 5G+ launch vehicle from the French Guiana (FRGUI). Payload-class satellites include a variety of spacecraft equipped with specific instruments for various scientific and technological missions. These include communications satellites like Starlink; space stations such as the ISS; scientific satellites like the Hubble; Earth observation satellites from companies like Planet Labs, Umbra, and HawkEye 360; GPS; miniature CubeSats for education and research; and military/defense satellites.

Loading next visibility...
Identifier
28495, 2004-049D
Orbit
SSO
Country
Flag of FRFR
Related business
Manufacturer
EADS/Bremen
Mission
Defense Sigint
Bus & Motor
MYRIADE, Unknown motor
Mass
119 kg wet, 114 kg dry
Launch date (UTC)
2004-12-18 (22 years ago)
Launch vehicle
ARIANE 5G+
Launch site
French Guiana (FRGUI)
Object type
Payload
Rocket body
Debris
Shape & HBR
Box + 1 Pan, 2.5 m
Radar Cross Section
0.607 m², Large (>1 m²)

Expand to show TLE details & history
Last TLE update: 2 days ago

TLE from 2 days ago
0 ESSAIM-2
1 28495U 04049D   26171.30689506  .00001139  00000-0  12120-3 0  9992
2 28495  98.2273  78.4639 0002718  93.8292 266.3235 14.91053309161009
Epoch: 2026-06-20T07:21Z
TLE epoch observation values (Epoch: 2026-06-20T07:21:55.733Z)
Latitude
-0.00008°
Longitude
59.45829°
Altitude
597.798 km
Speed
7.561 km/s
True Right ascension
05h 13m 51s
True Declination
0° 00' 00"
Sunlit
Object was in daylight at epoch
Visualization orbit readout
Latitude
Unknown
Longitude
Unknown
Altitude
Unknown
Speed
Unknown
Apparent Right ascension
Unknown
Apparent Declination
Unknown
Sunlit
N/A
Visualization observer readout
Local Sidereal Time
23:07:53
Azimuth
Unknown
Elevation
Unknown
Doppler factor
Unknown
Orbital elements
Apogee altitude
593.585 km
Perigee altitude
589.797 km
Semi-major axis
6,969.828 km
Eccentricity
0.00027
Inclination
98.2273°
RAAN
78.4639°
Arg. of periapsis
93.8292°
True anomaly
266.29242°
Mean anomaly
266.3235°
Eccentric anomaly
266.30796°
Mean motion
3.73001 °/min
Orbital period
96.51 mins
BSTAR
0.0001212
Loading maneuver chart data...
Computing Atmospheric mass density...
Loading historical data...
Loading historical data...
Loading historical data...
Loading historical data...
Loading historical data...
Loading historical data...
Loading historical data...

Documentation

Showing up to 5 results
|